[[{"header":{"parameterUnit":"m.s-1","parameterCategory":1,"la1":30.2992,"la2":30.254,"lo1":-89.0895,"lo2":-89.0443,"dy":0.0025,"dx":0.0025,"nx":19,"ny":19,"refTime":"2026-04-09T03:00:00:Z","depth":0,"parameterNumber":2,"parameterNumberName":"U-component_of_WINDS"},"data":[0,0,0,-8.1419,-8.1423,-8.1567,-8.1567,-8.1811,-8.1814,0,0,0,0,0,0,0,0,0,0,0,-8.1414,-8.1417,-8.1419,-8.1423,-8.1567,-8.1567,-8.1811,-8.1814,0,0,0,0,0,0,0,0,0,0,0,-8.1413,-8.1416,-8.142,-8.1424,-8.1567,-8.1567,-8.181,-8.168,0,0,0,0,0,0,0,0,0,0,-8.1529,-8.1563,-8.1416,-8.142,-8.1425,-8.1567,-8.1567,-8.1672,-8.1688,-8.1772,0,-8.1859,0,-8.1841,-8.1834,-8.1835,0,0,0,-8.1394,-8.1551,-8.1555,-8.1421,-8.1427,-8.1567,-8.1494,-8.168,-8.1698,-8.1793,-8.1862,-8.1869,-8.1845,-8.1836,-8.1838,-8.2424,-8.2428,0,0,-8.1386,-8.146,-8.1543,-8.1568,-8.1552,-8.149,-8.1499,-8.169,-8.1769,-8.1863,-8.1874,-8.1849,-8.1838,-8.1841,-8.242,-8.2425,0,0,0,-8.1383,-8.1456,-8.1454,-8.156,-8.1582,-8.1495,-8.1505,-8.1761,-8.1754,-8.1876,-8.1852,-8.184,-8.1844,-8.2415,-8.2422,-8.2696,0,0,0,-8.1377,-8.1454,-8.1453,-8.1499,-8.1579,-8.1674,-8.1573,-8.1741,-8.176,-8.1851,-8.184,-8.1847,-8.2411,-8.2419,-8.2679,-8.2813,0,0,0,-8.1392,-8.1455,-8.1489,-8.1503,-8.1568,-8.1668,-8.1672,-8.1743,-8.1747,-8.1836,-8.1848,-8.2408,-8.2417,-8.2663,-8.2788,-8.2989,0,0,0,-8.1429,-8.1731,-8.1495,-8.1823,-8.1567,-8.1838,-8.167,-8.1867,-8.1976,-8.1842,-8.2411,-8.2421,-8.2658,-8.2772,-8.2973,-8.3171,-8.3261,0,0,-8.1851,-8.1785,-8.1972,-8.1764,-8.2097,-8.181,-8.2181,-8.221,-8.215,-8.2336,-8.2349,-8.2684,-8.2786,-8.2985,-8.374,-8.3812,0,0,0,-8.213,-8.2266,-8.2338,-8.2445,-8.2476,-8.2512,-8.2476,-8.2486,-8.264,-8.2261,-8.2809,-8.2867,-8.2981,-8.3073,-8.3134,-8.3226,-8.2467,-8.2466,-8.2465,-8.2835,-8.2742,-8.3045,-8.2971,-8.3077,-8.3037,-8.3114,-8.3121,-8.2996,-8.3128,-8.3182,-8.3651,-8.3761,-8.3807,-8.3905,-8.3279,-8.3281,-8.3281,-8.3282,-8.3445,-8.3621,-8.3448,-8.368,-8.358,-8.3773,-8.3746,-8.3651,-8.3815,-8.3603,-8.3698,-8.3474,-8.3889,-8.3969,-8.3302,-8.3299,-8.3296,-8.3294,-8.3293,-8.3895,-8.3963,-8.3972,-8.4117,-8.424,-8.4152,-8.4318,-8.4221,-8.413,-8.4225,-8.4271,-8.4266,-8.4248,-8.4254,-8.4256,-8.4257,-8.4259,-8.426,-8.4261,-8.4359,-8.4359,-8.4512,-8.4569,-8.4625,-8.4686,-8.4649,-8.47,-8.4732,-8.4648,-8.4648,-8.451,-8.3947,-8.3807,-8.4286,-8.4281,-8.4278,-8.4276,-8.4274,-8.5011,-8.4848,-8.5084,-8.514,-8.5198,-8.5326,-8.5199,-8.5313,-8.5341,-8.5426,-8.5268,-8.4867,-8.4792,-8.4742,-8.4626,-8.5287,-8.5287,-8.5287,-8.5287,-8.5391,-8.5343,-8.5561,-8.5657,-8.574,-8.565,-8.5917,-8.5891,-8.5838,-8.585,-8.574,-8.5577,-8.5531,-8.5482,-8.5417,-8.5306,-8.6126,-8.6127,-8.6128,-8.5785,-8.5741,-8.5989,-8.5935,-8.5974,-8.6008,-8.6257,-8.6373,-8.6278,-8.616,-8.5856,-8.5821,-8.5557,-8.5476,-8.5351,-8.5251,-8.5047,0,0]},{"header":{"parameterUnit":"m.s-1","parameterCategory":1,"la1":30.2992,"la2":30.254,"lo1":-89.0895,"lo2":-89.0443,"dy":0.0025,"dx":0.0025,"nx":19,"ny":19,"refTime":"2026-04-09T03:00:00:Z","depth":0,"parameterNumber":3,"parameterNumberName":"V-component_of_WINDS"},"data":[0,0,0,-1.1421,-1.1423,-1.1484,-1.1484,-1.1552,-1.1553,0,0,0,0,0,0,0,0,0,0,0,-1.1398,-1.1399,-1.1421,-1.1423,-1.1484,-1.1484,-1.1552,-1.1553,0,0,0,0,0,0,0,0,0,0,0,-1.1398,-1.1399,-1.1399,-1.1423,-1.1483,-1.1484,-1.1552,-1.1509,0,0,0,0,0,0,0,0,0,0,-1.1451,-1.1426,-1.1399,-1.1399,-1.1423,-1.1483,-1.1484,-1.1507,-1.1512,-1.1521,0,-1.1528,0,-1.1541,-1.1557,-1.1557,0,0,0,-1.1426,-1.1422,-1.1443,-1.1399,-1.1424,-1.1483,-1.1457,-1.151,-1.1515,-1.1527,-1.1529,-1.1532,-1.1542,-1.1557,-1.1557,-1.1597,-1.1597,0,0,-1.1423,-1.1407,-1.1439,-1.1446,-1.1437,-1.1455,-1.1459,-1.1513,-1.1515,-1.1529,-1.1534,-1.1544,-1.1557,-1.1558,-1.1597,-1.1597,0,0,0,-1.1411,-1.1404,-1.1424,-1.1443,-1.1455,-1.1457,-1.1461,-1.1512,-1.152,-1.1534,-1.1544,-1.1558,-1.1559,-1.1597,-1.1597,-1.1582,0,0,0,-1.1409,-1.1397,-1.1422,-1.1413,-1.1454,-1.1484,-1.1459,-1.1516,-1.1523,-1.1544,-1.1558,-1.1559,-1.1597,-1.1597,-1.1583,-1.1578,0,0,0,-1.1396,-1.1396,-1.1403,-1.1412,-1.1438,-1.1484,-1.1495,-1.1518,-1.1529,-1.1557,-1.1559,-1.1597,-1.1597,-1.1583,-1.1579,-1.1583,0,0,0,-1.1378,-1.139,-1.1403,-1.1419,-1.1437,-1.1474,-1.1495,-1.1523,-1.1546,-1.1558,-1.1597,-1.1597,-1.1583,-1.1579,-1.1583,-1.1584,-1.1583,0,0,-1.1384,-1.139,-1.1401,-1.1414,-1.1445,-1.1466,-1.1495,-1.1531,-1.1548,-1.1579,-1.1581,-1.1583,-1.1579,-1.1583,-1.1582,-1.1581,0,0,0,-1.1397,-1.1405,-1.1417,-1.1437,-1.1465,-1.1487,-1.152,-1.1533,-1.1561,-1.1561,-1.1586,-1.1584,-1.1587,-1.1588,-1.1587,-1.1591,-1.1597,-1.1597,-1.1597,-1.1384,-1.1404,-1.1423,-1.1451,-1.147,-1.1503,-1.1521,-1.1544,-1.156,-1.1565,-1.1575,-1.1571,-1.1572,-1.1571,-1.1574,-1.1577,-1.1577,-1.1577,-1.1576,-1.1394,-1.1408,-1.1427,-1.1453,-1.1474,-1.1495,-1.1527,-1.1537,-1.1559,-1.1566,-1.157,-1.1575,-1.1569,-1.1573,-1.1576,-1.1576,-1.1576,-1.1576,-1.1576,-1.1387,-1.1397,-1.1412,-1.1442,-1.1463,-1.149,-1.151,-1.1529,-1.1547,-1.1551,-1.1562,-1.1563,-1.1565,-1.1555,-1.1555,-1.1555,-1.1555,-1.1555,-1.1555,-1.1373,-1.1391,-1.1406,-1.1434,-1.1449,-1.147,-1.1502,-1.1516,-1.1537,-1.1549,-1.155,-1.1564,-1.1565,-1.1564,-1.1555,-1.1555,-1.1555,-1.1555,-1.1555,-1.1376,-1.1378,-1.1401,-1.1415,-1.1449,-1.1467,-1.1491,-1.1518,-1.1533,-1.1542,-1.1555,-1.1553,-1.156,-1.1561,-1.1561,-1.1551,-1.1551,-1.1551,-1.1551,-1.137,-1.1375,-1.1402,-1.1423,-1.1446,-1.1469,-1.1493,-1.1516,-1.1541,-1.1551,-1.1555,-1.1556,-1.1557,-1.1564,-1.1565,-1.1565,-1.1556,-1.1556,-1.1556,-1.1372,-1.138,-1.1397,-1.1421,-1.1448,-1.1471,-1.1493,-1.1516,-1.1545,-1.1557,-1.1559,-1.1559,-1.1561,-1.1561,-1.1574,-1.1575,-1.1575,0,0]}]]